| time (UTC) | temp F | wind direction | speed MPH | gust MPH | rain 1hr in | rain 24hr in | rain mn in | humidity % | barometer mb |
| 20260507124524 | 40 | 264 | 3.0 | 10.0 | 0.00 | 0.06 | 0.00 | 93 | 1004.2 |
| 20260507124003 | 39 | 234 | 3.0 | 10.0 | 0.00 | 0.06 | 0.00 | 93 | 1004.1 |
| 20260507123503 | 39 | 261 | 6.0 | 9.0 | 0.00 | 0.06 | 0.00 | 92 | 1004.0 |
| 20260507123008 | 39 | 257 | 5.0 | 9.0 | 0.00 | 0.06 | 0.00 | 93 | 1004.0 |
| 20260507122504 | 39 | 234 | 5.0 | 8.0 | 0.00 | 0.06 | 0.00 | 93 | 1004.1 |
| 20260507122003 | 39 | 235 | 2.0 | 10.0 | 0.00 | 0.06 | 0.00 | 93 | 1004.0 |
| 20260507121513 | 39 | 275 | 3.0 | 10.0 | 0.00 | 0.06 | 0.00 | 93 | 1004.1 |
| 20260507121007 | 39 | 237 | 5.0 | 8.0 | 0.00 | 0.06 | 0.00 | 93 | 1004.1 |
| 20260507120503 | 39 | 229 | 4.0 | 9.0 | 0.00 | 0.06 | 0.00 | 93 | 1004.0 |
| 20260507120018 | 39 | 268 | 3.0 | 11.0 | 0.00 | 0.06 | 0.00 | 93 | 1004.1 |
| 20260507115506 | 39 | 268 | 3.0 | 11.0 | 0.00 | 0.06 | 0.00 | 93 | 1004.2 |
| 20260507115008 | 39 | 257 | 5.0 | 11.0 | 0.00 | 0.06 | 0.00 | 93 | 1004.2 |
| 20260507114520 | 39 | 268 | 4.0 | 10.0 | 0.00 | 0.06 | 0.00 | 93 | 1004.0 |
| 20260507114007 | 39 | 253 | 6.0 | 10.0 | 0.00 | 0.06 | 0.00 | 93 | 1004.2 |
| 20260507113508 | 40 | 236 | 4.0 | 8.0 | 0.00 | 0.06 | 0.00 | 93 | 1004.2 |
| 20260507113027 | 39 | 257 | 3.0 | 8.0 | 0.00 | 0.06 | 0.00 | 93 | 1004.2 |
| 20260507112504 | 40 | 238 | 3.0 | 8.0 | 0.00 | 0.06 | 0.00 | 93 | 1004.2 |
| 20260507112004 | 40 | 276 | 2.0 | 10.0 | 0.00 | 0.06 | 0.00 | 92 | 1004.1 |
| 20260507111516 | 40 | 260 | 4.0 | 11.0 | 0.00 | 0.06 | 0.00 | 92 | 1003.9 |
| 20260507111006 | 40 | 267 | 6.0 | 11.0 | 0.00 | 0.06 | 0.00 | 92 | 1003.8 |
| 20260507110502 | 40 | 263 | 5.0 | 11.0 | 0.00 | 0.06 | 0.00 | 91 | 1003.8 |
| 20260507110016 | 41 | 252 | 4.0 | 11.0 | 0.00 | 0.06 | 0.00 | 90 | 1003.9 |
| 20260507105504 | 42 | 245 | 6.0 | 10.0 | 0.00 | 0.06 | 0.00 | 91 | 1003.9 |
| 20260507105009 | 43 | 239 | 3.0 | 6.0 | 0.00 | 0.06 | 0.00 | 92 | 1003.7 |
| 20260507104520 | 42 | 240 | 2.0 | 4.0 | 0.00 | 0.06 | 0.00 | 92 | 1003.6 |
| 20260507104006 | 42 | 243 | 2.0 | 3.0 | 0.00 | 0.06 | 0.00 | 92 | 1003.6 |
| 20260507103506 | 42 | 213 | 1.0 | 3.0 | 0.00 | 0.06 | 0.00 | 92 | 1003.6 |
| 20260507103022 | 42 | 221 | 1.0 | 3.0 | 0.00 | 0.06 | 0.00 | 92 | 1003.5 |
| 20260507102506 | 42 | 247 | 1.0 | 3.0 | 0.00 | 0.06 | 0.00 | 92 | 1003.5 |
| 20260507102015 | 42 | 234 | 2.0 | 5.0 | 0.00 | 0.06 | 0.00 | 92 | 1003.6 |
| 20260507101509 | 42 | 227 | 2.0 | 5.0 | 0.00 | 0.06 | 0.00 | 92 | 1003.6 |
| 20260507101002 | 42 | 249 | 3.0 | 4.0 | 0.00 | 0.06 | 0.00 | 92 | 1003.5 |
| 20260507100505 | 42 | 239 | 1.0 | 2.0 | 0.00 | 0.06 | 0.00 | 92 | 1003.7 |
| 20260507100015 | 41 | 192 | 0.0 | 2.0 | 0.00 | 0.06 | 0.00 | 92 | 1003.8 |
| 20260507095508 | 41 | 192 | 1.0 | 2.0 | 0.00 | 0.06 | 0.00 | 92 | 1003.8 |
| 20260507095006 | 41 | 227 | 0.0 | 3.0 | 0.00 | 0.06 | 0.00 | 92 | 1003.7 |
| 20260507094518 | 41 | 247 | 2.0 | 6.0 | 0.00 | 0.06 | 0.00 | 92 | 1003.8 |
| 20260507094007 | 41 | 248 | 1.0 | 7.0 | 0.00 | 0.06 | 0.00 | 91 | 1003.9 |
| 20260507093515 | 42 | 263 | 3.0 | 7.0 | 0.00 | 0.06 | 0.00 | 91 | 1003.9 |
| 20260507093021 | 42 | 248 | 2.0 | 3.0 | 0.00 | 0.06 | 0.00 | 91 | 1003.9 |
| 20260507092507 | 42 | 282 | 2.0 | 6.0 | 0.00 | 0.06 | 0.00 | 91 | 1003.9 |
| 20260507092011 | 42 | 280 | 1.0 | 6.0 | 0.00 | 0.06 | 0.00 | 90 | 1003.8 |
| 20260507091535 | 42 | 265 | 2.0 | 5.0 | 0.00 | 0.06 | 0.00 | 90 | 1004.0 |
| 20260507091008 | 43 | 250 | 0.0 | 4.0 | 0.00 | 0.06 | 0.00 | 90 | 1003.9 |
| 20260507090507 | 43 | 250 | 1.0 | 4.0 | 0.00 | 0.06 | 0.00 | 90 | 1004.0 |
| 20260507090012 | 43 | 267 | 2.0 | 3.0 | 0.00 | 0.06 | 0.00 | 90 | 1004.0 |
| 20260507085503 | 43 | 263 | 1.0 | 2.0 | 0.00 | 0.06 | 0.00 | 90 | 1003.9 |
| 20260507085005 | 43 | 229 | 1.0 | 3.0 | 0.00 | 0.06 | 0.00 | 90 | 1003.9 |
| 20260507084534 | 43 | 254 | 2.0 | 3.0 | 0.00 | 0.06 | 0.00 | 89 | 1004.1 |
| 20260507084006 | 43 | 240 | 1.0 | 3.0 | 0.00 | 0.06 | 0.00 | 89 | 1004.1 |
| 20260507083511 | 43 | 311 | 0.0 | 2.0 | 0.00 | 0.06 | 0.00 | 89 | 1004.0 |
| 20260507083022 | 43 | 12 | 0.0 | 2.0 | 0.00 | 0.06 | 0.00 | 88 | 1004.0 |
| 20260507082508 | 43 | 46 | 0.0 | 2.0 | 0.00 | 0.06 | 0.00 | 88 | 1003.9 |
| 20260507082011 | 43 | 46 | 0.0 | 2.0 | 0.00 | 0.06 | 0.00 | 88 | 1003.8 |
| 20260507081528 | 43 | 46 | 0.0 | 2.0 | 0.00 | 0.06 | 0.00 | 88 | 1003.8 |
| 20260507081007 | 43 | 46 | 0.0 | 2.0 | 0.00 | 0.06 | 0.00 | 88 | 1003.7 |
| 20260507080511 | 43 | 46 | 0.0 | 2.0 | 0.00 | 0.06 | 0.00 | 88 | 1003.8 |
| 20260507080030 | 43 | 42 | 0.0 | 2.0 | 0.00 | 0.06 | 0.00 | 89 | 1003.8 |
| 20260507075508 | 43 | 71 | 1.0 | 2.0 | 0.00 | 0.06 | 0.00 | 88 | 1003.8 |
| 20260507075010 | 43 | 64 | 1.0 | 2.0 | 0.00 | 0.06 | 0.00 | 89 | 1003.9 |
| 20260507074512 | 43 | 64 | 0.0 | 2.0 | 0.00 | 0.06 | 0.00 | 88 | 1003.9 |
| 20260507074005 | 43 | 78 | 1.0 | 2.0 | 0.00 | 0.06 | 0.00 | 89 | 1004.0 |
| 20260507073503 | 43 | 78 | 0.0 | 2.0 | 0.00 | 0.06 | 0.00 | 89 | 1004.1 |
| 20260507073022 | 43 | 57 | 1.0 | 2.0 | 0.00 | 0.06 | 0.00 | 89 | 1004.1 |
| 20260507072507 | 43 | 42 | 1.0 | 2.0 | 0.00 | 0.06 | 0.00 | 89 | 1004.2 |
| 20260507072006 | 43 | 42 | 0.0 | 2.0 | 0.00 | 0.06 | 0.00 | 89 | 1004.2 |
| 20260507071525 | 43 | 42 | 0.0 | 1.0 | 0.00 | 0.06 | 0.00 | 89 | 1004.3 |
| 20260507071009 | 43 | 42 | 0.0 | 1.0 | 0.00 | 0.06 | 0.00 | 89 | 1004.3 |
| 20260507070510 | 43 | 42 | 0.0 | 0.0 | 0.00 | 0.06 | 0.00 | 89 | 1004.5 |
| 20260507070029 | 43 | 42 | 0.0 | 2.0 | 0.00 | 0.06 | 0.00 | 89 | 1004.5 |
| 20260507065507 | 43 | 42 | 0.0 | 2.0 | 0.00 | 0.06 | 0.00 | 89 | 1004.6 |
| 20260507065011 | 43 | 42 | 0.0 | 2.0 | 0.00 | 0.06 | 0.00 | 89 | 1004.5 |
| 20260507064531 | 43 | 38 | 0.0 | 2.0 | 0.00 | 0.06 | 0.00 | 89 | 1004.5 |
| 20260507064010 | 43 | 38 | 0.0 | 2.0 | 0.00 | 0.06 | 0.00 | 89 | 1004.5 |
| 20260507063503 | 43 | 57 | 0.0 | 2.0 | 0.00 | 0.06 | 0.00 | 89 | 1004.4 |
| 20260507063016 | 43 | 64 | 1.0 | 4.0 | 0.00 | 0.06 | 0.00 | 89 | 1004.2 |
| 20260507062507 | 43 | 52 | 2.0 | 4.0 | 0.00 | 0.06 | 0.00 | 89 | 1004.3 |
| 20260507062006 | 43 | 58 | 1.0 | 3.0 | 0.00 | 0.06 | 0.00 | 89 | 1004.4 |
| 20260507061520 | 43 | 85 | 2.0 | 4.0 | 0.00 | 0.06 | 0.00 | 89 | 1004.3 |
| 20260507061006 | 43 | 90 | 2.0 | 4.0 | 0.00 | 0.06 | 0.00 | 89 | 1004.4 |
| 20260507060506 | 43 | 72 | 2.0 | 4.0 | 0.00 | 0.06 | 0.00 | 89 | 1004.5 |
| 20260507060026 | 43 | 82 | 2.0 | 4.0 | 0.00 | 0.06 | 0.00 | 89 | 1004.6 |
| 20260507055508 | 43 | 60 | 3.0 | 4.0 | 0.00 | 0.06 | 0.00 | 90 | 1004.8 |
| 20260507055011 | 44 | 30 | 2.0 | 3.0 | 0.00 | 0.06 | 0.00 | 90 | 1004.8 |
| 20260507054527 | 44 | 57 | 1.0 | 3.0 | 0.00 | 0.06 | 0.00 | 90 | 1004.9 |
| 20260507054012 | 44 | 266 | 1.0 | 2.0 | 0.00 | 0.06 | 0.00 | 90 | 1005.1 |
| 20260507053511 | 44 | 266 | 0.0 | 3.0 | 0.00 | 0.06 | 0.00 | 90 | 1005.2 |
| 20260507053034 | 44 | 266 | 1.0 | 3.0 | 0.00 | 0.06 | 0.00 | 90 | 1005.3 |
| 20260507052510 | 44 | 266 | 0.0 | 2.0 | 0.00 | 0.06 | 0.00 | 90 | 1005.4 |
| 20260507052006 | 44 | 266 | 1.0 | 2.0 | 0.00 | 0.06 | 0.00 | 90 | 1005.4 |
| 20260507051514 | 44 | 266 | 0.0 | 2.0 | 0.00 | 0.06 | 0.00 | 91 | 1005.5 |
| 20260507051002 | 44 | 266 | 0.0 | 2.0 | 0.00 | 0.06 | 0.00 | 90 | 1005.6 |
| 20260507050506 | 44 | 266 | 0.0 | 2.0 | 0.00 | 0.06 | 0.00 | 90 | 1005.7 |
| 20260507050035 | 44 | 266 | 0.0 | 2.0 | 0.00 | 0.06 | 0.00 | 90 | 1005.7 |
| 20260507045504 | 44 | 266 | 0.0 | 2.0 | 0.00 | 0.06 | 0.00 | 90 | 1005.6 |
| 20260507045003 | 44 | 266 | 1.0 | 2.0 | 0.00 | 0.06 | 0.00 | 90 | 1005.4 |
| 20260507044514 | 44 | 261 | 0.0 | 2.0 | 0.00 | 0.06 | 0.00 | 90 | 1005.4 |
| 20260507044002 | 44 | 261 | 0.0 | 2.0 | 0.00 | 0.06 | 0.00 | 91 | 1005.5 |
| 20260507043502 | 44 | 261 | 0.0 | 2.0 | 0.00 | 0.06 | 0.00 | 91 | 1005.4 |
| 20260507043011 | 44 | 261 | 0.0 | 2.0 | 0.00 | 0.06 | 0.00 | 91 | 1005.3 |
| 20260507042504 | 45 | 261 | 0.0 | 2.0 | 0.00 | 0.06 | 0.00 | 91 | 1005.7 |
| 20260507042006 | 45 | 261 | 0.0 | 2.0 | 0.00 | 0.06 | 0.00 | 91 | 1005.8 |
| 20260507041514 | 45 | 261 | 0.0 | 2.0 | 0.00 | 0.06 | 0.00 | 91 | 1005.7 |
| 20260507041004 | 45 | 261 | 0.0 | 2.0 | 0.00 | 0.06 | 0.00 | 91 | 1005.6 |
| 20260507040505 | 45 | 261 | 0.0 | 2.0 | 0.00 | 0.06 | 0.00 | 91 | 1005.7 |
| 20260507040014 | 45 | 261 | 1.0 | 2.0 | 0.00 | 0.06 | 0.00 | 91 | 1005.8 |
| 20260507035502 | 45 | 259 | 0.0 | 2.0 | 0.00 | 0.06 | 0.06 | 91 | 1005.7 |
| 20260507035004 | 45 | 259 | 0.0 | 2.0 | 0.00 | 0.06 | 0.06 | 91 | 1005.6 |
| 20260507034520 | 45 | 259 | 0.0 | 2.0 | 0.00 | 0.06 | 0.06 | 91 | 1005.5 |
| 20260507034003 | 45 | 259 | 0.0 | 2.0 | 0.00 | 0.06 | 0.06 | 91 | 1005.6 |
| 20260507033507 | 45 | 259 | 0.0 | 2.0 | 0.00 | 0.06 | 0.06 | 91 | 1005.7 |
| 20260507033014 | 45 | 259 | 1.0 | 2.0 | 0.00 | 0.06 | 0.06 | 91 | 1005.8 |
| 20260507032502 | 45 | 189 | 0.0 | 2.0 | 0.00 | 0.06 | 0.06 | 91 | 1005.9 |
| 20260507032003 | 45 | 137 | 0.0 | 2.0 | 0.00 | 0.06 | 0.06 | 91 | 1006.0 |
| 20260507031516 | 45 | 137 | 0.0 | 2.0 | 0.00 | 0.06 | 0.06 | 91 | 1006.0 |
| 20260507031003 | 45 | 137 | 0.0 | 0.0 | 0.00 | 0.06 | 0.06 | 91 | 1005.9 |
| 20260507030509 | 45 | 137 | 0.0 | 2.0 | 0.00 | 0.06 | 0.06 | 91 | 1005.8 |
| 20260507030018 | 45 | 137 | 0.0 | 2.0 | 0.00 | 0.06 | 0.06 | 91 | 1005.9 |
| 20260507025503 | 45 | 137 | 0.0 | 2.0 | 0.00 | 0.06 | 0.06 | 91 | 1006.1 |
| 20260507025004 | 45 | 137 | 1.0 | 2.0 | 0.00 | 0.06 | 0.06 | 91 | 1006.3 |
| 20260507024516 | 45 | 90 | 0.0 | 2.0 | 0.00 | 0.06 | 0.06 | 91 | 1006.2 |
| 20260507024008 | 45 | 90 | 0.0 | 1.0 | 0.00 | 0.06 | 0.06 | 91 | 1006.3 |
| 20260507023503 | 45 | 91 | 0.0 | 0.0 | 0.00 | 0.06 | 0.06 | 91 | 1006.3 |
| 20260507023017 | 45 | 90 | 0.0 | 2.0 | 0.00 | 0.06 | 0.06 | 91 | 1006.5 |
| 20260507022504 | 45 | 91 | 0.0 | 2.0 | 0.00 | 0.06 | 0.06 | 91 | 1006.4 |
| 20260507022010 | 45 | 90 | 0.0 | 2.0 | 0.00 | 0.06 | 0.06 | 91 | 1006.5 |
| 20260507021528 | 45 | 90 | 0.0 | 2.0 | 0.00 | 0.06 | 0.06 | 91 | 1006.7 |
| 20260507021003 | 45 | 90 | 0.0 | 2.0 | 0.00 | 0.06 | 0.06 | 91 | 1006.8 |
| 20260507020507 | 45 | 90 | 0.0 | 2.0 | 0.00 | 0.06 | 0.06 | 91 | 1006.7 |
| 20260507020017 | 45 | 90 | 0.0 | 2.0 | 0.00 | 0.06 | 0.06 | 91 | 1006.9 |
| 20260507015507 | 45 | 90 | 0.0 | 0.0 | 0.00 | 0.06 | 0.06 | 90 | 1006.8 |
| 20260507015010 | 45 | 91 | 0.0 | 1.0 | 0.00 | 0.06 | 0.06 | 90 | 1006.7 |
| 20260507014521 | 45 | 90 | 0.0 | 2.0 | 0.00 | 0.06 | 0.06 | 90 | 1006.7 |
| 20260507014006 | 45 | 91 | 0.0 | 2.0 | 0.00 | 0.06 | 0.06 | 90 | 1006.9 |
| 20260507013504 | 45 | 91 | 0.0 | 2.0 | 0.00 | 0.06 | 0.06 | 90 | 1007.0 |
| 20260507013022 | 45 | 91 | 0.0 | 2.0 | 0.00 | 0.06 | 0.06 | 90 | 1007.0 |
| 20260507012507 | 45 | 90 | 0.0 | 2.0 | 0.00 | 0.06 | 0.06 | 90 | 1007.0 |
| 20260507012009 | 45 | 91 | 0.0 | 2.0 | 0.00 | 0.06 | 0.06 | 90 | 1007.2 |
| 20260507011522 | 45 | 91 | 0.0 | 2.0 | 0.00 | 0.06 | 0.06 | 90 | 1007.1 |
| 20260507011006 | 45 | 91 | 0.0 | 2.0 | 0.00 | 0.06 | 0.06 | 90 | 1007.2 |
| 20260507010508 | 45 | 91 | 0.0 | 2.0 | 0.00 | 0.06 | 0.06 | 90 | 1007.2 |
| 20260507010021 | 45 | 91 | 0.0 | 2.0 | 0.00 | 0.06 | 0.06 | 90 | 1007.3 |
| 20260507005507 | 45 | 90 | 0.0 | 2.0 | 0.00 | 0.06 | 0.06 | 89 | 1007.4 |
| 20260507005007 | 45 | 111 | 0.0 | 2.0 | 0.00 | 0.06 | 0.06 | 90 | 1007.3 |
| 20260507004521 | 45 | 122 | 0.0 | 2.0 | 0.00 | 0.06 | 0.06 | 90 | 1007.3 |
| 20260507004007 | 45 | 107 | 1.0 | 2.0 | 0.00 | 0.06 | 0.06 | 89 | 1007.3 |
| 20260507003507 | 45 | 191 | 0.0 | 2.0 | 0.00 | 0.06 | 0.06 | 89 | 1007.5 |
| 20260507003022 | 45 | 191 | 0.0 | 2.0 | 0.00 | 0.06 | 0.06 | 89 | 1007.6 |
| 20260507002507 | 45 | 191 | 0.0 | 2.0 | 0.00 | 0.06 | 0.06 | 89 | 1007.5 |
| 20260507002010 | 45 | 191 | 0.0 | 2.0 | 0.00 | 0.06 | 0.06 | 89 | 1007.2 |
| 20260507001523 | 45 | 193 | 1.0 | 2.0 | 0.00 | 0.06 | 0.06 | 89 | 1007.3 |
| 20260507001006 | 45 | 200 | 0.0 | 2.0 | 0.00 | 0.06 | 0.06 | 89 | 1007.3 |
| 20260507000506 | 45 | 238 | 0.0 | 3.0 | 0.00 | 0.07 | 0.06 | 89 | 1007.4 |
| 20260507000025 | 45 | 238 | 0.0 | 5.0 | 0.00 | 0.07 | 0.06 | 89 | 1007.3 |
| 20260506235509 | 45 | 244 | 2.0 | 5.0 | 0.00 | 0.07 | 0.06 | 89 | 1007.4 |
| 20260506235006 | 44 | 277 | 1.0 | 2.0 | 0.00 | 0.07 | 0.06 | 89 | 1007.4 |
| 20260506234515 | 44 | 277 | 0.0 | 3.0 | 0.00 | 0.07 | 0.06 | 89 | 1007.4 |
| 20260506234007 | 44 | 277 | 1.0 | 4.0 | 0.00 | 0.07 | 0.06 | 89 | 1007.4 |
| 20260506233507 | 44 | 277 | 1.0 | 4.0 | 0.00 | 0.07 | 0.06 | 89 | 1007.4 |
| 20260506233022 | 44 | 277 | 2.0 | 3.0 | 0.00 | 0.07 | 0.06 | 89 | 1007.3 |
| 20260506232506 | 44 | 253 | 1.0 | 3.0 | 0.00 | 0.07 | 0.06 | 90 | 1007.4 |
| 20260506232007 | 44 | 225 | 0.0 | 3.0 | 0.00 | 0.07 | 0.06 | 90 | 1007.3 |
| 20260506231522 | 44 | 217 | 1.0 | 5.0 | 0.00 | 0.07 | 0.06 | 90 | 1007.3 |
| 20260506231007 | 44 | 257 | 1.0 | 5.0 | 0.00 | 0.07 | 0.06 | 90 | 1007.2 |
| 20260506230507 | 44 | 245 | 2.0 | 6.0 | 0.00 | 0.07 | 0.06 | 90 | 1007.3 |
| 20260506230024 | 44 | 282 | 2.0 | 6.0 | 0.00 | 0.10 | 0.06 | 90 | 1007.4 |
| 20260506225506 | 45 | 279 | 0.0 | 2.0 | 0.00 | 0.11 | 0.06 | 91 | 1007.4 |
| 20260506225006 | 45 | 279 | 0.0 | 2.0 | 0.00 | 0.13 | 0.06 | 91 | 1007.4 |
| 20260506224521 | 45 | 279 | 1.0 | 2.0 | 0.00 | 0.14 | 0.06 | 91 | 1007.5 |
| 20260506224008 | 45 | 279 | 0.0 | 2.0 | 0.00 | 0.14 | 0.06 | 91 | 1007.6 |
| 20260506223505 | 45 | 279 | 0.0 | 2.0 | 0.00 | 0.14 | 0.06 | 91 | 1007.5 |
| 20260506223019 | 45 | 279 | 1.0 | 3.0 | 0.00 | 0.14 | 0.06 | 90 | 1007.5 |
| 20260506222506 | 45 | 279 | 1.0 | 3.0 | 0.00 | 0.14 | 0.06 | 90 | 1007.4 |
| 20260506222009 | 45 | 279 | 1.0 | 3.0 | 0.00 | 0.14 | 0.06 | 90 | 1007.5 |
| 20260506221524 | 45 | 279 | 2.0 | 4.0 | 0.00 | 0.14 | 0.06 | 90 | 1007.5 |
| 20260506221008 | 46 | 333 | 2.0 | 4.0 | 0.00 | 0.14 | 0.06 | 90 | 1007.5 |
| 20260506220508 | 46 | 328 | 1.0 | 2.0 | 0.00 | 0.14 | 0.06 | 91 | 1007.6 |
| 20260506220025 | 46 | 281 | 0.0 | 2.0 | 0.00 | 0.15 | 0.06 | 91 | 1007.6 |
| 20260506215507 | 46 | 281 | 1.0 | 2.0 | 0.00 | 0.22 | 0.06 | 91 | 1007.7 |
| 20260506215005 | 46 | 281 | 0.0 | 2.0 | 0.00 | 0.22 | 0.06 | 91 | 1007.7 |
| 20260506214510 | 46 | 281 | 0.0 | 3.0 | 0.00 | 0.22 | 0.06 | 91 | 1007.7 |
| 20260506214004 | 45 | 281 | 0.0 | 6.0 | 0.00 | 0.22 | 0.06 | 91 | 1007.7 |
| 20260506213507 | 45 | 281 | 2.0 | 6.0 | 0.00 | 0.22 | 0.05 | 90 | 1007.7 |
| 20260506213019 | 45 | 273 | 2.0 | 6.0 | 0.00 | 0.22 | 0.05 | 90 | 1007.5 |
| 20260506212505 | 45 | 274 | 2.0 | 6.0 | 0.00 | 0.22 | 0.05 | 90 | 1007.6 |
| 20260506212007 | 46 | 248 | 3.0 | 6.0 | 0.00 | 0.22 | 0.05 | 89 | 1007.5 |
| 20260506211532 | 46 | 280 | 2.0 | 10.0 | 0.00 | 0.22 | 0.05 | 89 | 1007.8 |
| 20260506211007 | 46 | 254 | 3.0 | 10.0 | 0.00 | 0.22 | 0.05 | 88 | 1007.8 |
| 20260506210508 | 46 | 250 | 1.0 | 4.0 | 0.00 | 0.22 | 0.05 | 89 | 1007.8 |
| 20260506210033 | 46 | 297 | 2.0 | 4.0 | 0.00 | 0.22 | 0.05 | 88 | 1007.8 |
| 20260506205507 | 46 | 281 | 2.0 | 6.0 | 0.00 | 0.22 | 0.05 | 87 | 1007.8 |
| 20260506205013 | 47 | 271 | 2.0 | 7.0 | 0.00 | 0.22 | 0.05 | 87 | 1007.8 |
| 20260506204528 | 48 | 281 | 3.0 | 7.0 | 0.00 | 0.22 | 0.05 | 86 | 1007.8 |
| 20260506204007 | 48 | 232 | 3.0 | 5.0 | 0.01 | 0.22 | 0.05 | 85 | 1007.8 |
| 20260506203504 | 48 | 229 | 3.0 | 4.0 | 0.01 | 0.22 | 0.05 | 86 | 1007.8 |
| 20260506203016 | 48 | 194 | 2.0 | 4.0 | 0.00 | 0.21 | 0.04 | 86 | 1007.7 |
| 20260506202506 | 48 | 207 | 2.0 | 5.0 | 0.01 | 0.21 | 0.04 | 86 | 1007.7 |
| 20260506202009 | 48 | 211 | 1.0 | 5.0 | 0.01 | 0.21 | 0.04 | 86 | 1007.6 |
| 20260506201532 | 48 | 186 | 2.0 | 6.0 | 0.01 | 0.21 | 0.04 | 87 | 1007.7 |
| 20260506201009 | 48 | 188 | 3.0 | 7.0 | 0.02 | 0.21 | 0.04 | 86 | 1007.8 |
| 20260506200508 | 48 | 180 | 3.0 | 7.0 | 0.02 | 0.21 | 0.04 | 87 | 1007.8 |
| 20260506200031 | 48 | 232 | 4.0 | 6.0 | 0.03 | 0.21 | 0.04 | 87 | 1007.7 |
| 20260506195511 | 48 | 201 | 4.0 | 6.0 | 0.03 | 0.21 | 0.04 | 86 | 1007.8 |
| 20260506195016 | 48 | 219 | 2.0 | 7.0 | 0.03 | 0.21 | 0.04 | 86 | 1007.8 |
| 20260506194526 | 48 | 221 | 4.0 | 7.0 | 0.03 | 0.21 | 0.04 | 86 | 1007.9 |
| 20260506194012 | 48 | 227 | 2.0 | 5.0 | 0.03 | 0.20 | 0.03 | 85 | 1007.9 |
| 20260506193510 | 48 | 217 | 2.0 | 7.0 | 0.03 | 0.20 | 0.03 | 85 | 1008.0 |
| 20260506193041 | 48 | 192 | 3.0 | 7.0 | 0.03 | 0.20 | 0.03 | 85 | 1008.0 |
| 20260506192505 | 48 | 199 | 2.0 | 8.0 | 0.03 | 0.19 | 0.03 | 85 | 1008.1 |
| 20260506192006 | 48 | 168 | 1.0 | 8.0 | 0.03 | 0.19 | 0.03 | 85 | 1008.1 |
| 20260506191515 | 48 | 170 | 4.0 | 8.0 | 0.03 | 0.19 | 0.03 | 84 | 1008.1 |
| 20260506191005 | 48 | 166 | 4.0 | 6.0 | 0.02 | 0.19 | 0.02 | 85 | 1008.1 |
| 20260506190508 | 48 | 156 | 2.0 | 6.0 | 0.02 | 0.20 | 0.02 | 85 | 1008.2 |
| 20260506190021 | 48 | 170 | 3.0 | 6.0 | 0.01 | 0.19 | 0.01 | 85 | 1008.1 |
| 20260506185507 | 48 | 221 | 3.0 | 7.0 | 0.01 | 0.19 | 0.01 | 85 | 1008.2 |
| 20260506185009 | 48 | 186 | 2.0 | 7.0 | 0.01 | 0.19 | 0.01 | 84 | 1008.2 |
| 20260506184525 | 48 | 141 | 4.0 | 9.0 | 0.00 | 0.18 | 0.00 | 83 | 1008.2 |
| 20260506184007 | 48 | 173 | 3.0 | 9.0 | 0.00 | 0.18 | 0.00 | 83 | 1008.3 |
| 20260506183508 | 48 | 163 | 3.0 | 8.0 | 0.00 | 0.18 | 0.00 | 82 | 1008.2 |
| 20260506183027 | 48 | 208 | 4.0 | 11.0 | 0.00 | 0.18 | 0.00 | 82 | 1008.2 |
| 20260506182507 | 49 | 173 | 6.0 | 11.0 | 0.00 | 0.18 | 0.00 | 81 | 1008.2 |
| 20260506182014 | 49 | 183 | 2.0 | 9.0 | 0.00 | 0.18 | 0.00 | 81 | 1008.2 |
| 20260506181533 | 49 | 188 | 4.0 | 9.0 | 0.00 | 0.18 | 0.00 | 79 | 1008.2 |
| 20260506181007 | 49 | 202 | 5.0 | 10.0 | 0.00 | 0.18 | 0.00 | 79 | 1008.3 |
| 20260506180507 | 49 | 172 | 4.0 | 11.0 | 0.00 | 0.18 | 0.00 | 78 | 1008.2 |
| 20260506180019 | 49 | 193 | 5.0 | 12.0 | 0.00 | 0.18 | 0.00 | 77 | 1008.3 |
| 20260506175511 | 50 | 175 | 7.0 | 15.0 | 0.00 | 0.18 | 0.00 | 74 | 1008.5 |
| 20260506175006 | 50 | 213 | 6.0 | 15.0 | 0.00 | 0.18 | 0.00 | 73 | 1008.5 |
| 20260506174523 | 51 | 162 | 6.0 | 15.0 | 0.00 | 0.18 | 0.00 | 72 | 1008.5 |
| 20260506174012 | 51 | 177 | 8.0 | 14.0 | 0.00 | 0.18 | 0.00 | 70 | 1008.6 |
| 20260506173514 | 51 | 188 | 4.0 | 12.0 | 0.00 | 0.18 | 0.00 | 71 | 1008.6 |
| 20260506173048 | 51 | 215 | 5.0 | 12.0 | 0.00 | 0.18 | 0.00 | 71 | 1008.6 |
| 20260506172507 | 51 | 222 | 7.0 | 12.0 | 0.00 | 0.18 | 0.00 | 71 | 1008.7 |
| 20260506172010 | 51 | 229 | 6.0 | 14.0 | 0.00 | 0.18 | 0.00 | 71 | 1008.7 |
| 20260506171537 | 51 | 192 | 6.0 | 14.0 | 0.00 | 0.18 | 0.00 | 70 | 1008.7 |
| 20260506171011 | 51 | 202 | 6.0 | 12.0 | 0.00 | 0.18 | 0.00 | 71 | 1008.7 |
| 20260506170508 | 51 | 247 | 7.0 | 12.0 | 0.00 | 0.18 | 0.00 | 72 | 1008.8 |
| 20260506170019 | 50 | 181 | 3.0 | 7.0 | 0.00 | 0.18 | 0.00 | 76 | 1008.8 |
| 20260506165508 | 49 | 253 | 3.0 | 4.0 | 0.00 | 0.18 | 0.00 | 79 | 1008.9 |
| 20260506165007 | 49 | 276 | 1.0 | 6.0 | 0.00 | 0.18 | 0.00 | 78 | 1009.0 |
| 20260506164524 | 50 | 279 | 1.0 | 6.0 | 0.00 | 0.18 | 0.00 | 78 | 1009.0 |
| 20260506164006 | 50 | 275 | 2.0 | 13.0 | 0.00 | 0.18 | 0.00 | 76 | 1009.0 |
| 20260506163510 | 51 | 262 | 3.0 | 13.0 | 0.00 | 0.18 | 0.00 | 75 | 1009.0 |
| 20260506163029 | 51 | 242 | 6.0 | 13.0 | 0.00 | 0.18 | 0.00 | 75 | 1008.9 |
| 20260506162509 | 51 | 252 | 4.0 | 12.0 | 0.00 | 0.18 | 0.00 | 77 | 1009.0 |
| 20260506162010 | 51 | 212 | 4.0 | 13.0 | 0.00 | 0.18 | 0.00 | 76 | 1009.0 |
| 20260506161528 | 51 | 223 | 9.0 | 13.0 | 0.00 | 0.18 | 0.00 | 74 | 1009.0 |
| 20260506161013 | 52 | 254 | 6.0 | 14.0 | 0.00 | 0.18 | 0.00 | 73 | 1009.0 |
| 20260506160512 | 52 | 259 | 8.0 | 14.0 | 0.00 | 0.18 | 0.00 | 73 | 1009.1 |
| 20260506160029 | 52 | 240 | 8.0 | 12.0 | 0.00 | 0.18 | 0.00 | 74 | 1009.1 |
| 20260506155510 | 52 | 202 | 5.0 | 9.0 | 0.00 | 0.18 | 0.00 | 77 | 1009.1 |
| 20260506155007 | 52 | 190 | 3.0 | 11.0 | 0.00 | 0.18 | 0.00 | 77 | 1009.1 |
| 20260506154523 | 51 | 207 | 3.0 | 11.0 | 0.00 | 0.18 | 0.00 | 78 | 1009.1 |
| 20260506154008 | 51 | 215 | 4.0 | 8.0 | 0.00 | 0.18 | 0.00 | 78 | 1009.1 |
| 20260506153506 | 51 | 173 | 2.0 | 7.0 | 0.00 | 0.18 | 0.00 | 78 | 1009.1 |
| 20260506153027 | 51 | 214 | 4.0 | 7.0 | 0.00 | 0.18 | 0.00 | 79 | 1009.0 |
| 20260506152509 | 51 | 157 | 4.0 | 8.0 | 0.00 | 0.18 | 0.00 | 79 | 1009.0 |
| 20260506152011 | 50 | 182 | 3.0 | 8.0 | 0.00 | 0.18 | 0.00 | 79 | 1009.0 |
| 20260506151528 | 50 | 262 | 4.0 | 8.0 | 0.00 | 0.18 | 0.00 | 79 | 1009.1 |
| 20260506151010 | 50 | 209 | 3.0 | 8.0 | 0.00 | 0.18 | 0.00 | 77 | 1009.0 |
| 20260506150510 | 50 | 166 | 4.0 | 8.0 | 0.00 | 0.18 | 0.00 | 76 | 1009.0 |
| 20260506150026 | 50 | 166 | 2.0 | 10.0 | 0.00 | 0.18 | 0.00 | 76 | 1009.1 |
| 20260506145509 | 50 | 201 | 6.0 | 10.0 | 0.00 | 0.18 | 0.00 | 74 | 1009.1 |
| 20260506145011 | 50 | 181 | 3.0 | 8.0 | 0.00 | 0.18 | 0.00 | 76 | 1009.1 |
| 20260506144528 | 51 | 226 | 4.0 | 9.0 | 0.00 | 0.18 | 0.00 | 77 | 1009.1 |
| 20260506144006 | 51 | 208 | 4.0 | 9.0 | 0.00 | 0.18 | 0.00 | 77 | 1009.0 |
| 20260506143510 | 51 | 182 | 4.0 | 9.0 | 0.00 | 0.18 | 0.00 | 77 | 1008.9 |
| 20260506143026 | 51 | 209 | 4.0 | 9.0 | 0.00 | 0.18 | 0.00 | 77 | 1008.8 |
| 20260506142507 | 51 | 190 | 5.0 | 9.0 | 0.00 | 0.18 | 0.00 | 77 | 1008.8 |
| 20260506142008 | 51 | 202 | 2.0 | 8.0 | 0.00 | 0.18 | 0.00 | 76 | 1008.9 |
| 20260506141525 | 51 | 182 | 3.0 | 7.0 | 0.00 | 0.18 | 0.00 | 75 | 1009.0 |
| 20260506141008 | 51 | 171 | 3.0 | 8.0 | 0.00 | 0.18 | 0.00 | 75 | 1009.0 |
| 20260506140511 | 51 | 184 | 3.0 | 10.0 | 0.00 | 0.18 | 0.00 | 76 | 1008.9 |
| 20260506140033 | 51 | 187 | 4.0 | 11.0 | 0.00 | 0.18 | 0.00 | 75 | 1008.9 |
| 20260506135511 | 52 | 242 | 6.0 | 11.0 | 0.00 | 0.18 | 0.00 | 74 | 1009.0 |
| 20260506135010 | 52 | 206 | 5.0 | 9.0 | 0.00 | 0.18 | 0.00 | 74 | 1008.9 |
| 20260506134530 | 52 | 182 | 4.0 | 9.0 | 0.00 | 0.18 | 0.00 | 75 | 1008.9 |
| 20260506134011 | 52 | 191 | 1.0 | 5.0 | 0.00 | 0.18 | 0.00 | 76 | 1008.8 |
| 20260506133515 | 51 | 196 | 2.0 | 5.0 | 0.00 | 0.18 | 0.00 | 77 | 1008.9 |
| 20260506133019 | 51 | 235 | 3.0 | 5.0 | 0.00 | 0.18 | 0.00 | 75 | 1008.8 |
| 20260506132508 | 51 | 206 | 2.0 | 3.0 | 0.00 | 0.18 | 0.00 | 76 | 1008.9 |
| 20260506132014 | 51 | 192 | 2.0 | 5.0 | 0.00 | 0.18 | 0.00 | 76 | 1008.8 |
| 20260506131526 | 51 | 198 | 1.0 | 5.0 | 0.00 | 0.18 | 0.00 | 77 | 1008.6 |
| 20260506131007 | 51 | 207 | 2.0 | 6.0 | 0.00 | 0.18 | 0.00 | 76 | 1008.5 |
| 20260506130504 | 51 | 194 | 3.0 | 6.0 | 0.00 | 0.18 | 0.00 | 76 | 1008.7 |
| 20260506130007 | 51 | 200 | 3.0 | 6.0 | 0.00 | 0.18 | 0.00 | 75 | 1008.7 |
| 20260506125503 | 51 | 212 | 3.0 | 6.0 | 0.00 | 0.18 | 0.00 | 75 | 1008.7 |
| 20260506125006 | 51 | 212 | 2.0 | 5.0 | 0.00 | 0.18 | 0.00 | 75 | 1008.6 |